SCP
0 0 1 1 1 1 1 1 1 1 1 1 1 0 0 0 0 0 0 0 0 0 0 0 0 0 0 0 0 0 0 0 0 0 0 0 0 0 0 0 0 0 0
0 0 1 1 1 1 1 1 1 1 1 1 1 0 0 0 0 0 0 0 0 0 0 0 0 0 0 0 0 0 0 0 0 0 0 0 0 0 0 0 0 0 0
0 0 0 1 1 1 1 1 1 1 1 1 1 1 0 0 0 0 0 0 0 0 0 0 0 0 0 0 0 0 0 0 0 0 0 0 0 0 0 0 0 0 0
0 0 0 1 1 1 1 1 1 1 1 1 1 1 0 0 0 0 0 0 0 0 0 0 0 0 0 0 0 0 0 0 0 0 0 0 0 0 0 0 0 0 0
0 0 0 1 1 1 1 1 1 1 1 1 1 1 1 0 0 0 0 0 0 0 0 0 0 0 0 0 0 0 0 0 0 -0 -0 0 0 0 0 0 0 0 0
0 0 0 1 1 1 1 1 1 1 1 1 1 1 1 1 0 0 0 0 0 0 0 0 0 0 0 0 0 0 0 0 0 0 0 0 0 0 0 0 0 0 0
0 0 0 1 1 1 1 1 1 1 1 1 1 1 1 1 0 0 0 0 0 0 0 0 0 0 0 0 0 0 0 0 0 0 0 0 0 0 0 0 0 0 0
0 0 0 0 1 1 1 1 1 1 1 1 1 1 1 1 1 0 0 0 0 0 0 0 0 0 0 0 0 0 0 0 0 0 0 0 0 0 0 0 0 0 0
0 0 0 0 0 1 1 1 1 1 1 1 1 1 1 1 1 1 0 0 0 0 0 0 0 0 0 0 0 0 0 0 0 0 0 0 0 0 0 0 0 0 0
0 0 0 0 0 0 0 0 0 1 1 1 1 1 0 0 0 0 0 0 0 0 0 0 0 0 0 0 0 0 0 0 0 0 0 0 0 0 0 0 0 0 0
0 0 0 0 0 0 0 0 0 0 0 0 0 0 0 0 0 0 0 0 0 0 0 0 0 0 0 0 0 0 0 0 0 0 0 0 0 0 0 0 0 0 0
0 0 0 0 0 0 0 0 0 0 0 0 0 0 0 0 0 0 0 0 0 0 0 0 0 0 0 0 0 0 0 0 0 0 0 0 0 0 -0 -0 -0 0 0
0 0 0 0 0 0 0 1 1 1 1 1 0 0 0 1 1 0 0 0 0 0 0 0 0 0 0 0 0 0 0 0 0 0 0 0 0 0 -0 -0 -0 0 0
0 0 0 0 0 0 0 1 1 1 1 1 1 0 1 1 1 1 1 1 0 0 0 0 0 0 0 0 0 0 0 0 0 0 0 0 0 0 0 0 -0 0 0
0 0 0 0 0 0 0 0 0 1 1 1 1 1 1 1 1 1 1 1 1 0 0 0 0 0 0 0 0 0 0 0 0 0 0 0 0 0 0 0 0 0 0
0 0 0 0 0 0 0 0 0 0 1 1 1 1 1 1 1 1 1 1 1 0 0 0 0 0 0 0 0 0 0 0 0 0 0 0 0 0 0 0 0 0 0
0 0 0 0 0 0 0 0 0 0 0 1 1 1 1 1 1 1 1 1 1 0 0 0 0 0 0 0 0 0 0 0 0 0 0 0 0 0 0 0 0 0 0
0 0 0 0 0 0 0 0 0 0 0 1 1 1 1 1 1 1 1 1 1 0 0 0 0 0 0 0 0 0 0 0 0 0 0 0 0 0 0 0 0 0 0
0 0 0 0 0 0 0 0 0 0 0 1 1 1 1 1 1 1 1 1 1 0 0 0 0 0 0 0 0 0 0 0 0 0 0 0 0 0 0 0 0 0 0
0 0 0 0 0 0 0 0 0 0 0 1 1 1 1 1 1 1 1 1 1 0 0 0 0 0 0 0 0 0 0 0 0 0 0 0 0 0 0 0 0 0 0
0 0 0 0 0 0 0 0 0 0 0 1 1 1 1 0 1 1 1 1 1 0 0 0 0 0 0 0 0 0 0 0 0 0 0 0 0 0 0 0 0 0 0
0 0 0 0 0 0 0 0 0 0 0 0 1 1 0 0 0 0 1 1 1 0 0 0 0 0 0 0 0 0 0 0 0 0 0 0 0 0 0 0 0 0 0
0 0 0 0 0 0 0 0 0 0 0 0 0 1 0 0 0 0 0 0 0 0 0 0 0 0 0 0 0 0 0 0 0 0 0 0 0 0 0 0 0 0 0
0 0 0 0 0 0 0 0 0 0 0 0 0 0 0 0 0 0 0 0 0 0 0 0 0 0 0 0 0 0 0 0 0 0 0 0 0 0 0 0 0 0 0
0 0 0 0 0 0 0 0 0 0 0 0 0 0 0 0 0 0 0 0 0 0 0 0 0 0 0 0 0 0 0 0 0 0 0 0 0 0 0 0 0 0 0
0 0 0 0 0 0 0 0 0 0 0 0 0 0 0 0 0 0 0 0 0 0 0 0 0 0 0 0 0 0 0 0 0 0 0 0 0 0 0 0 0 0 0
Wind_Speed
2 4 9 12 14 14 14 14 14 15 15 16 16 15 15 14 14 14 13 13 13 13 14 13 13 13 13 13 13 13 13 14 14 14 13 13 13 13 12 9 8 11 13
5 4 9 11 13 14 13 13 13 13 14 15 16 15 15 15 14 14 14 13 13 13 14 14 14 13 13 14 14 14 14 14 14 13 11 11 11 12 11 10 10 10 12
5 4 9 9 11 12 13 13 13 13 14 14 15 15 15 15 14 14 14 13 13 13 14 14 14 14 14 14 13 13 13 13 13 9 6 9 10 11 11 11 12 12 11
5 3 8 9 10 12 13 13 13 14 14 14 14 15 15 14 14 14 13 13 13 14 14 14 14 14 13 13 13 13 13 12 10 5 6 8 9 10 10 10 11 11 11
3 3 5 8 10 11 13 14 14 14 14 14 14 14 14 14 14 14 14 13 13 13 13 14 14 13 13 12 12 12 12 11 6 4 8 7 8 10 10 10 10 10 10
3 2 4 6 8 10 11 13 14 14 14 14 14 14 14 15 15 14 13 11 12 12 14 14 14 13 12 12 11 11 11 10 7 7 7 7 8 9 10 10 9 9 9
4 2 3 5 7 9 10 12 13 14 14 14 15 15 15 15 15 14 12 12 13 14 14 14 14 13 12 11 11 11 10 5 5 7 6 6 8 9 9 9 9 8 8
5 3 2 4 6 7 9 11 12 13 14 15 14 15 15 15 14 14 13 13 14 15 15 14 14 13 12 11 11 11 9 5 5 6 6 7 7 8 8 8 7 7 7
6 5 3 4 6 7 8 9 11 12 13 13 13 13 13 13 13 14 14 14 15 15 15 14 13 12 11 11 11 10 8 4 5 5 5 5 6 7 7 7 6 6 5
7 6 5 4 5 7 8 9 10 10 12 13 13 12 12 11 12 13 14 14 14 14 14 14 13 12 11 10 10 10 8 6 5 6 4 5 5 6 6 6 5 5 4
8 6 6 5 5 5 7 8 10 10 11 12 12 12 11 12 13 12 14 13 14 14 14 14 13 11 10 9 9 9 8 5 6 4 3 5 5 6 6 5 5 4 4
10 9 6 6 6 6 6 6 7 9 10 12 11 13 12 11 10 11 12 12 13 13 13 13 12 11 9 8 9 8 6 6 5 4 4 4 6 7 6 6 5 4 3
10 10 8 7 7 6 5 5 5 5 7 10 12 13 10 9 8 8 7 9 11 12 12 11 11 9 9 7 7 8 6 6 4 4 5 5 6 7 7 6 6 5 4
11 11 9 8 7 7 6 6 6 6 6 7 10 12 9 7 8 8 7 9 9 8 10 10 8 10 10 10 9 9 8 5 5 4 4 5 6 7 7 7 7 6 5
11 11 10 9 9 8 7 6 7 7 7 8 8 10 11 9 9 9 8 8 9 8 9 10 10 10 10 10 9 9 9 8 7 6 4 7 6 7 8 8 7 7 7
12 12 10 10 10 9 7 7 7 7 7 8 8 10 12 10 9 9 10 9 9 9 9 9 11 10 9 8 9 9 9 8 8 7 6 7 8 7 8 9 9 8 7
12 12 11 10 10 10 10 9 7 7 8 8 8 11 12 12 11 10 9 9 9 9 10 8 10 8 8 8 9 10 8 9 8 8 7 6 7 9 9 10 10 9 8
12 12 11 9 10 10 10 9 7 7 8 8 8 9 13 13 13 10 9 9 10 9 9 8 8 9 8 8 8 8 7 7 9 9 8 7 6 6 8 10 10 9 9
11 11 11 10 10 10 10 8 8 7 8 8 8 9 11 13 13 11 9 9 10 9 9 9 9 9 9 9 8 7 7 8 8 8 9 9 8 7 6 8 9 9 8
10 10 10 10 9 8 7 7 6 8 8 8 8 9 11 11 13 12 9 11 10 9 9 9 10 9 8 7 7 7 7 8 8 8 9 8 7 8 8 8 7 8 9
9 9 9 9 8 7 6 6 7 7 7 8 8 10 11 12 12 12 9 10 10 10 11 11 10 10 8 7 6 6 7 9 9 8 8 8 9 9 9 9 7 6 6
9 9 9 9 8 8 6 6 6 7 7 7 7 9 11 11 12 11 12 10 10 10 12 12 11 8 7 8 7 6 6 8 9 8 8 8 9 8 9 10 9 8 7
9 8 7 8 8 8 8 5 5 5 6 6 8 8 10 11 12 11 12 11 11 11 10 12 12 12 9 9 9 7 6 7 6 7 10 9 9 8 8 8 10 9 9
9 7 7 7 7 7 7 7 8 7 8 9 7 7 9 11 12 12 12 12 12 10 11 12 12 10 11 9 8 8 7 4 5 5 7 8 10 10 10 8 9 10 10
8 6 6 6 6 6 6 7 8 8 8 6 7 8 9 9 11 12 12 12 12 11 12 12 12 12 10 10 8 7 8 6 7 5 6 6 7 8 9 9 8 8 9
8 6 5 5 5 5 5 6 7 8 8 8 8 8 7 7 7 10 10 11 11 11 12 12 12 13 12 12 10 9 8 8 8 8 7 7 7 6 8 8 8 8 8
Wind_Direction
323 201 166 173 166 161 158 156 156 156 156 157 156 155 155 154 151 149 147 146 145 144 140 137 135 131 126 121 117 113 107 102 100 95 91 89 90 90 87 83 91 86 81
316 214 165 175 169 164 161 157 155 155 157 159 160 160 160 158 156 154 152 151 151 148 144 142 137 130 125 119 114 111 107 103 101 99 100 97 89 90 87 75 67 83 83
317 210 172 173 172 167 163 159 158 158 160 162 163 164 165 164 162 159 158 156 154 150 146 141 136 130 125 121 118 115 112 109 107 113 138 112 101 94 92 89 86 86 85
316 209 182 167 172 172 167 164 163 164 165 166 167 168 169 168 166 164 163 161 156 150 145 141 137 131 128 126 124 121 117 115 117 158 124 107 106 101 99 95 92 87 86
329 206 171 167 176 176 173 169 169 171 171 170 171 172 173 172 170 168 166 162 156 150 146 143 140 136 134 132 130 126 123 122 135 155 107 107 105 106 100 96 94 92 87
351 218 170 168 183 182 180 177 175 177 178 177 176 176 176 175 174 172 168 161 154 148 147 146 144 144 141 139 136 133 131 137 170 120 117 115 109 111 106 102 99 97 92
352 312 196 177 187 186 186 185 182 183 184 183 183 181 180 179 178 175 168 161 157 153 152 152 151 150 149 147 144 140 139 162 151 127 124 116 109 117 115 109 104 99 94
346 324 259 192 197 194 193 190 191 190 189 189 188 186 186 184 182 178 171 166 163 161 159 158 158 156 156 155 151 146 148 187 150 137 133 120 115 125 119 115 111 106 100
345 336 304 237 209 200 199 199 197 198 196 194 192 190 189 187 182 178 174 172 170 167 165 163 163 161 161 159 155 153 156 209 170 143 139 126 134 138 129 127 124 118 112
344 340 327 293 247 225 212 205 204 202 202 198 196 193 189 186 185 180 177 177 175 172 169 168 169 166 163 161 158 155 157 200 171 154 154 130 150 152 146 143 138 132 128
334 332 325 311 285 251 235 216 210 207 205 203 201 193 192 196 193 187 187 177 177 174 173 172 173 167 162 160 158 156 173 198 170 170 157 129 174 165 161 160 154 149 143
318 318 313 307 295 273 249 230 220 218 211 210 209 201 203 203 199 195 179 176 178 175 175 177 173 165 179 174 165 175 197 196 182 179 149 157 190 180 175 176 177 175 175
303 301 300 298 290 278 258 241 226 222 219 216 214 207 205 203 199 196 181 180 183 179 182 179 178 186 194 186 180 193 198 195 196 184 163 183 206 196 192 194 196 199 206
294 292 290 287 280 274 265 248 235 224 219 217 214 209 205 200 202 197 192 189 189 189 189 187 195 192 197 193 195 197 195 202 203 197 167 186 218 212 205 207 208 212 219
289 287 285 280 273 267 260 250 238 230 224 221 217 213 209 204 203 199 196 193 193 191 190 192 197 194 197 198 202 204 203 206 206 202 182 190 221 225 217 217 218 220 222
284 283 281 276 270 263 255 249 243 236 228 225 218 216 213 210 206 200 199 196 196 194 194 196 198 196 199 200 204 209 211 210 214 210 208 191 208 224 224 222 224 226 223
281 280 275 271 266 260 254 249 243 237 233 227 222 218 214 211 208 203 202 198 197 196 195 197 200 200 201 202 208 211 215 216 216 216 213 213 205 210 222 225 226 224 225
279 275 272 267 263 257 251 248 243 236 231 228 225 221 217 212 208 203 203 202 198 194 194 195 198 200 202 205 209 209 214 216 222 222 217 216 218 212 210 219 227 227 227
278 273 270 264 262 259 252 245 241 238 234 230 224 220 218 214 209 205 204 203 198 196 196 195 199 203 205 207 211 213 217 217 220 222 225 222 221 222 220 201 214 225 226
279 272 268 264 259 258 251 246 241 236 233 230 225 221 217 214 210 207 205 205 198 196 197 198 198 202 208 205 209 218 223 225 225 224 226 224 221 221 223 216 210 213 218
283 272 265 262 258 251 244 238 235 233 228 224 224 224 219 216 212 208 205 204 201 202 202 200 198 199 202 196 202 219 227 228 230 226 224 224 220 219 221 220 220 218 211
287 276 264 258 255 249 244 243 241 243 239 229 224 223 220 218 215 211 209 206 203 205 206 202 199 199 199 194 199 204 217 218 220 224 224 224 224 216 219 220 220 220 222
292 279 268 259 253 248 246 242 239 236 237 229 223 221 219 219 217 216 214 213 209 207 207 205 203 202 201 200 206 205 210 221 209 207 218 221 221 218 219 219 222 222 223
299 286 274 265 255 250 242 237 229 228 230 229 226 222 219 218 219 217 218 216 214 212 211 208 205 205 205 202 207 224 237 241 216 210 207 217 221 223 222 217 220 220 220
311 301 288 276 265 255 244 239 235 237 237 235 231 227 224 222 222 220 220 219 216 215 214 210 207 206 208 211 205 206 222 229 230 228 223 210 215 222 222 220 220 221 219
330 321 309 293 283 271 255 248 241 240 238 233 228 226 224 222 221 222 223 223 222 219 218 215 212 211 210 212 213 212 211 212 214 221 231 222 222 218 217 221 222 222 219